Bradford, PA

8:37 PM EST on November 11, 2019 (GMT -0500)
Bradford Regional

Weather History for KBFD - October, 2019

Change the Weather History Date:

Tuesday, October 22, 2019

  Actual Average Record
Temperature  
Mean Temperature 52 °F 45 °F  
Max Temperature 55 °F 55 °F 78 °F (1979)
Min Temperature 49 °F 34 °F 24 °F (1969)
Degree Days  
Heating Degree Days 13 16  
Month to date heating degree days 326 282  
Since 1 July heating degree days 536 699  
Cooling Degree Days 0 0  
Month to date cooling degree days 10 0  
Year to date cooling degree days 283 192  
Growing Degree Days 2 (Base 50)    
Moisture  
Dew Point 48 °F    
Average Humidity 83    
Maximum Humidity 93    
Minimum Humidity 72    
Precipitation  
Precipitation 0.66 in 0.10 in 1.04 in (2005)
Month to date precipitation 3.17 2.47  
Year to date precipitation 38.38 36.34  
Sea Level Pressure  
Sea Level Pressure 29.81 in    
Wind  
Wind Speed 8 mph (SSE)    
Max Wind Speed 21 mph    
Max Gust Speed 29 mph    
Visibility 7 miles    
Events Rain    
T = Trace of Precipitation, MM = Missing Value Source: NWS Daily Summary

Daily Weather History Graph

Daily Weather History Graph

Search for Another Location

Airport or City:

Astronomy

Oct. 22, 2019 Rise Set
Actual Time 7:34 AM EDT 6:22 PM EDT
Civil Twilight 7:06 AM EDT 6:51 PM EDT
Nautical Twilight 6:33 AM EDT 7:23 PM EDT
Astronomical Twilight 6:01 AM EDT 7:55 PM EDT
Moon 12:34 AM EDT (10/22) 3:37 PM EDT (10/22)
Length of Visible Light 11h 44m
Length of Day
10h 48m
Last Quarter, 37% of the Moon is Illuminated
Oct 22
Last Quarter
Oct 27
New
Nov 4
First Quarter
Nov 12
Full
Nov 19
Last Quarter

Hourly Weather History & Observations

Time (EDT) Temp. Dew Point Humidity Pressure Visibility Wind Dir Wind Speed Gust Speed Precip Events Conditions
12:53 AM 55.0 °F 46.0 °F 72% 29.91 in 10.0 mi SSE 12.7 mph 21.9 mph N/A   Clear
1:53 AM 55.0 °F 46.0 °F 72% 29.88 in 10.0 mi SE 15.0 mph 27.6 mph N/A   Clear
2:53 AM 55.0 °F 46.9 °F 74% 29.86 in 10.0 mi SE 16.1 mph 26.5 mph N/A   Partly Cloudy
3:53 AM 54.0 °F 46.9 °F 77% 29.84 in 10.0 mi SSE 17.3 mph 25.3 mph N/A   Mostly Cloudy
4:53 AM 55.0 °F 46.9 °F 74% 29.84 in 10.0 mi SSE 12.7 mph 23.0 mph N/A   Overcast
5:43 AM 55.0 °F 48.0 °F 77% 29.85 in 10.0 mi SSE 12.7 mph 20.7 mph N/A   Mostly Cloudy
5:53 AM 55.0 °F 48.0 °F 77% 29.83 in 10.0 mi SSE 12.7 mph 23.0 mph N/A   Mostly Cloudy
6:53 AM 54.0 °F 50.0 °F 86% 29.84 in 6.0 mi SSE 10.4 mph 19.6 mph 0.00 in Rain Light Rain
7:05 AM 54.0 °F 50.0 °F 86% 29.84 in 7.0 mi SSE 11.5 mph - 0.01 in Rain Light Rain
7:53 AM 54.0 °F 50.0 °F 86% 29.81 in 7.0 mi SE 12.7 mph 23.0 mph 0.03 in Rain Light Rain
8:45 AM 54.0 °F 51.1 °F 90% 29.82 in 2.0 mi SE 12.7 mph - 0.05 in Rain Light Rain
8:53 AM 54.0 °F 51.1 °F 90% 29.81 in 4.0 mi SE 15.0 mph 20.7 mph 0.06 in Rain Light Rain
9:17 AM 54.0 °F 51.1 °F 90% 29.82 in 4.0 mi SSE 13.8 mph 24.2 mph 0.00 in   Overcast
9:53 AM 54.0 °F 51.1 °F 90% 29.80 in 4.0 mi SSE 15.0 mph 24.2 mph 0.00 in   Overcast
10:53 AM 54.0 °F 52.0 °F 93% 29.81 in 2.0 mi SSE 8.1 mph - 0.14 in Rain Rain
11:01 AM 54.0 °F 52.0 °F 93% 29.83 in 1.8 mi South 6.9 mph - 0.04 in Rain Heavy Rain
11:27 AM 54.0 °F 51.1 °F 90% 29.83 in 1.8 mi Variable 5.8 mph - 0.12 in Rain Rain
11:50 AM 53.6 °F 50.0 °F 88% 29.83 in 2.0 mi Variable 4.6 mph - 0.18 in Rain Light Rain
11:51 AM 54.0 °F 50.0 °F 86% 29.81 in 2.0 mi Variable 6.9 mph - 0.18 in Rain Light Rain
11:58 AM 53.1 °F 48.9 °F 86% 29.82 in 2.5 mi SSW 5.8 mph - 0.00 in Rain Light Rain
12:04 PM 53.1 °F 48.9 °F 86% 29.82 in 4.0 mi SSW 5.8 mph - 0.00 in Rain Light Rain
12:38 PM 52.0 °F 48.9 °F 89% 29.81 in 2.0 mi SE 6.9 mph - 0.07 in Rain Rain
12:53 PM 52.0 °F 48.9 °F 89% 29.78 in 3.0 mi SSE 3.5 mph - 0.10 in Rain Rain
1:15 PM 52.0 °F 50.0 °F 93% 29.79 in 2.5 mi SE 3.5 mph - 0.05 in Rain Rain
1:24 PM 52.0 °F 50.0 °F 93% 29.79 in 5.0 mi Variable 3.5 mph - 0.06 in Rain Light Rain
1:49 PM 53.6 °F 50.0 °F 88% 29.78 in 7.0 mi SSE 4.6 mph - 0.08 in Rain Light Rain
1:53 PM 53.1 °F 50.0 °F 89% 29.78 in 7.0 mi SSE 4.6 mph - 0.09 in Rain Light Rain
1:57 PM 53.1 °F 51.1 °F 93% 29.79 in 6.0 mi South 5.8 mph - 0.00 in Rain Light Rain
2:16 PM 54.0 °F 51.1 °F 90% 29.78 in 5.0 mi SE 6.9 mph - 0.02 in Rain Light Rain
2:25 PM 54.0 °F 50.0 °F 86% 29.78 in 5.0 mi South 8.1 mph - 0.04 in Rain Light Rain
2:36 PM 53.1 °F 48.9 °F 86% 29.77 in 8.0 mi SSE 8.1 mph - 0.05 in Rain Light Rain
2:53 PM 53.1 °F 50.0 °F 89% 29.74 in 6.0 mi SE 5.8 mph - 0.06 in Rain Light Rain
3:18 PM 53.1 °F 48.9 °F 86% 29.79 in 10.0 mi South 13.8 mph 19.6 mph 0.00 in   Overcast
3:28 PM 53.1 °F 48.0 °F 83% 29.78 in 10.0 mi South 6.9 mph 23.0 mph 0.00 in   Overcast
3:53 PM 52.0 °F 46.0 °F 80% 29.78 in 10.0 mi South 6.9 mph 17.3 mph 0.00 in   Overcast
4:53 PM 51.1 °F 46.9 °F 86% 29.75 in 10.0 mi Variable 3.5 mph - 0.00 in   Overcast
5:02 PM 51.1 °F 46.9 °F 86% 29.77 in 10.0 mi South 5.8 mph - N/A   Overcast
5:18 PM 52.0 °F 48.0 °F 86% 29.76 in 10.0 mi South 5.8 mph - N/A   Mostly Cloudy
5:27 PM 52.0 °F 48.0 °F 86% 29.76 in 10.0 mi SSE 4.6 mph - N/A   Mostly Cloudy
5:53 PM 52.0 °F 46.9 °F 83% 29.76 in 10.0 mi Variable 6.9 mph - N/A   Mostly Cloudy
6:50 PM 51.8 °F 46.4 °F 82% 29.79 in 10.0 mi South 4.6 mph - N/A   Mostly Cloudy
6:53 PM 51.1 °F 46.0 °F 83% 29.79 in 10.0 mi Variable 5.8 mph - N/A   Scattered Clouds
7:50 PM 50.0 °F 46.4 °F 87% 29.81 in 10.0 mi South 5.8 mph - N/A   Scattered Clouds
7:53 PM 50.0 °F 46.0 °F 86% 29.81 in 10.0 mi South 4.6 mph - N/A   Scattered Clouds
8:02 PM 51.1 °F 46.9 °F 86% 29.81 in 10.0 mi South 5.8 mph - N/A   Mostly Cloudy
8:53 PM 51.1 °F 46.9 °F 86% 29.81 in 10.0 mi SSW 5.8 mph - N/A   Mostly Cloudy
9:48 PM 50.0 °F 46.4 °F 87% 29.83 in 10.0 mi Variable 4.6 mph - N/A   Scattered Clouds
9:53 PM 50.0 °F 46.9 °F 89% 29.83 in 10.0 mi Variable 4.6 mph - N/A   Scattered Clouds
10:53 PM 50.0 °F 46.9 °F 89% 29.84 in 10.0 mi Variable 4.6 mph - N/A   Overcast
11:09 PM 50.0 °F 46.9 °F 89% 29.84 in 10.0 mi West 6.9 mph - N/A   Overcast
11:36 PM 50.0 °F 46.0 °F 86% 29.85 in 10.0 mi West 4.6 mph - N/A   Mostly Cloudy
11:53 PM 50.0 °F 45.0 °F 83% 29.85 in 10.0 mi Variable 4.6 mph - N/A   Mostly Cloudy